Tracking 18816 objects as of 19-October-2017
HD Live streaming from Space Station
objects crossing your sky now

TURKSAT 2A

Track TURKSAT 2A now!
TURKSAT 2A is classified as:


NORAD ID: 26666
Int'l Code: 2001-002A
Perigee: 36,336.6 km
Apogee: 36,428.8 km
Inclination: 1.4 °
Period: 1,466.3 minutes
Semi major axis: 42753 km
RCS: 3.9 m2 (large)
Launch date: January 10, 2001
Source: Turkey (TURK)
Launch site: FRENCH GUIANA (FRGUI)

32 Ku-band transponders; direct-to-home voice, video, and data transmissions to countries between central Europe and the Indian subcontinent.
aabbcc
Your satellite tracking list
Your tracking list is empty





NASA's NSSDC Master Catalog

Two Line Element Set (TLE):
1 26666U 01002A   17290.90998844 -.00000040 +00000-0 +00000-0 0  9994
2 26666 001.4172 085.6807 0010790 211.3805 149.2958 00.98206961061213
Source of the keplerian elements: AFSPC